Terminal Aerodrome Forecast
Issued by NWS

Home | Current Version | Previous Version | Text Only | Print | Product List | Glossary On
Versions: 1 2 3 4 5 6 7 8 9 10 11 12 13 14 15 16 17 18 19 20 21 22 23 24 25 26 27
872
FTUS44 KLZK 241539 AAB
TAFBPK
TAF AMD
KBPK 241539Z 2416/2512 11006KT 2SM BR VCSH OVC004
      TEMPO 2416/2418 1/2SM -RA FG VV002
     FM241800 14008KT 4SM SHRA BR VCTS OVC007CB
     FM242200 22007KT P6SM VCSH OVC012
     FM250200 26009KT P6SM SCT020 BKN250
     FM250800 28006KT P6SM SCT250=

USA.gov is the U.S. government's official web portal to all federal, state and local government web resources and services.